Regional Weather Roundup
Issued by NWS Green Bay, WI

Home | Current Version | Previous Version | Text Only | Print | Product List | Glossary On
Versions: 1 2 3 4 5 6 7 8 9 10 11 12 13 14 15 16 17 18 19 20 21 22 23 24 25 26 27 28 29 30 31 32 33 34 35 36 37 38 39 40 41 42 43 44 45 46 47 48 49 50
000
ASUS43 KGRB 230110
RWRGRB

NORTH-CENTRAL AND NORTHEAST WISCONSIN REGIONAL WEATHER ROUNDUP
NATIONAL WEATHER SERVICE GREEN BAY WI
800 PM CDT WED OCT 22 2014

WIZ005-009-010>012-018-019-230200-
NORTH CENTRAL WISCONSIN

CITY           SKY/WX    TMP DP  RH WIND       PRES   REMARKS
IRONWOOD       MOCLDY    52  28  40 SE8       30.08F
MANITOWISH WTR CLEAR     46  31  55 S10       30.15S
ARBOR VITAE    CLEAR     46  31  58 SE5       30.16F
EAGLE RIVER    CLEAR     42  28  57 CALM      30.18S
LAND O LAKES   CLEAR     44  29  57 S3        30.18F
RHINELANDER    CLEAR     42  31  64 SE7       30.19S
PHILLIPS       MOCLDY    47  32  55 S8        30.15S
ANTIGO         CLEAR     40  35  80 SE10      30.21S
TOMAHAWK       CLEAR     43  32  64 CALM      30.18S
MERRILL        CLEAR     44  33  65 S6        30.19S
$$

WIZ013-073-230200-
NORTHEAST WISCONSIN

CITY           SKY/WX    TMP DP  RH WIND       PRES   REMARKS
IRON MOUNTAIN  CLEAR     39  33  79 SE6       30.22S
MARINETTE      CLEAR     41  34  75 S5        30.26S
OCONTO         PTCLDY    41  40  97 S6        30.26F
$$

WIZ017-030-035>037-045-230200-
CENTRAL WISCONSIN

CITY           SKY/WX    TMP DP  RH WIND       PRES   REMARKS
MEDFORD        CLEAR     45  35  68 SE6       30.17S
WAUSAU         CLEAR     46  34  62 SE10      30.19S
MOSINEE        CLEAR     45  36  70 SE7       30.21S
MARSHFIELD     CLEAR     45  35  68 SE6       30.18S
WISC RAPIDS    CLEAR     45  35  68 SE6       30.22R
STEVENS POINT  CLEAR     44  33  65 SE5       30.21S
WAUPACA        CLEAR     45  38  77 SE5       30.24R
SHAWANO        CLEAR     43  38  83 SE5       30.25S
CLINTONVILLE   CLEAR     43  36  75 SE5       30.24R
$$

WIZ038-039-048-051-230200-
FOX VALLEY

CITY           SKY/WX    TMP DP  RH WIND       PRES   REMARKS
NWS GREEN BAY  CLEAR     41  37  86 SE7       30.26F
APPLETON       PTCLDY    43  37  81 SE7       30.25S
OSHKOSH        CLEAR     45  39  79 SE8       30.24S
FOND DU LAC    CLEAR     43  38  82 SE9       30.25S
$$

WIZ022-050-052-230200-
EAST CENTRAL WISCONSIN

CITY           SKY/WX    TMP DP  RH WIND       PRES   REMARKS
STURGEON BAY   CLEAR     39  34  81 SE6       30.27F
MANITOWOC        N/A     43  39  86 S6        30.27F
SHEBOYGAN      CLEAR     39  35  86 CALM      30.27F
$$

LMZ563-521-522-541>543-230200-
LAKESHORE

STATION/POSITION TIME  TEMP    WIND        PRES    VSBY  WAVE
                       AIR SEA DIR/SP/G                  HT/PER
                 (UTC) (F)     (DEG/KT/KT) (MB)    (MI)  (FT/S)
SHEBOYGAN LKSHOR 0100   47 50  150/ 10/ 13 1025.5F
KEWAUNEE LKSHORE 0100   46     160/ 11/ 13 1024.1F
TWO RIVERS CG    0000   46                 1024.9    3/8   1
NORTHPORT PIER   0100   40     190/  3/  6 1025.1S
N MID LAKE BUOY  0100   45 51  150/  8/ 10 1025.9F         0
SISTER BAY LKSHO 0000          140/  5/  6   N/A
STURGEON BAY CG  0000   44 50  160/  9     1042.9    3/8   3
CHAMBERS ISLAND  0100   41     130/  4/  6 1025.1S
MENOMINEE LKSHOR 0100   45     150/ 12/ 14 1025.0F
$$



USA.gov is the U.S. government's official web portal to all federal, state and local government web resources and services.